| time (UTC) | temp F | wind direction | speed MPH | gust MPH | rain 1hr in | rain 24hr in | rain mn in | humidity % | barometer mb |
| 20260508033414 | 50 | 0.0 | 0.0 | 0.00 | 0.00 | 0.00 | 100 | 1018.3 | |
| 20260508032416 | 50 | 0.0 | 0.0 | 0.00 | 0.00 | 0.00 | 100 | 1018.3 | |
| 20260508031418 | 50 | 0.0 | 0.0 | 0.00 | 0.00 | 0.00 | 100 | 1018.1 | |
| 20260508030420 | 50 | 0.0 | 0.0 | 0.00 | 0.00 | 0.00 | 100 | 1017.9 | |
| 20260508025422 | 50 | 0.0 | 0.0 | 0.00 | 0.00 | 0.00 | 100 | 1017.9 | |
| 20260508024424 | 50 | 0.0 | 0.0 | 0.00 | 0.00 | 0.00 | 100 | 1017.7 | |
| 20260508023426 | 50 | 0.0 | 0.0 | 0.00 | 0.00 | 0.00 | 100 | 1017.6 | |
| 20260508022426 | 50 | 0.0 | 0.0 | 0.00 | 0.00 | 0.00 | 100 | 1017.5 | |
| 20260508021427 | 50 | 0.0 | 0.0 | 0.00 | 0.00 | 0.00 | 100 | 1017.5 | |
| 20260508020429 | 50 | 0.0 | 0.0 | 0.00 | 0.00 | 0.00 | 100 | 1017.5 | |
| 20260508015431 | 50 | 0.0 | 0.0 | 0.00 | 0.00 | 0.00 | 100 | 1017.6 | |
| 20260508014432 | 51 | 0.0 | 0.0 | 0.00 | 0.00 | 0.00 | 100 | 1017.8 | |
| 20260508013434 | 51 | 0.0 | 0.0 | 0.00 | 0.00 | 0.00 | 100 | 1017.8 | |
| 20260508012435 | 51 | 0.0 | 0.0 | 0.00 | 0.00 | 0.00 | 100 | 1017.9 | |
| 20260508011437 | 51 | 0.0 | 0.0 | 0.00 | 0.00 | 0.00 | 100 | 1017.8 | |
| 20260508010439 | 51 | 0.0 | 0.0 | 0.00 | 0.00 | 0.00 | 100 | 1017.7 | |
| 20260508005436 | 51 | 0.0 | 0.0 | 0.00 | 0.00 | 0.00 | 100 | 1017.7 | |
| 20260508004437 | 51 | 0.0 | 0.0 | 0.00 | 0.00 | 0.00 | 100 | 1017.5 | |
| 20260508003438 | 51 | 0.0 | 0.0 | 0.00 | 0.00 | 0.00 | 100 | 1017.5 | |
| 20260508002440 | 51 | 0.0 | 0.0 | 0.00 | 0.00 | 0.00 | 100 | 1017.4 | |
| 20260508001442 | 52 | 0.0 | 0.0 | 0.00 | 0.00 | 0.00 | 100 | 1017.3 | |
| 20260508000443 | 52 | 0.0 | 0.0 | 0.00 | 0.00 | 0.00 | 100 | 1017.3 | |
| 20260507235445 | 52 | 0.0 | 0.0 | 0.00 | 0.00 | 0.00 | 100 | 1017.2 | |
| 20260507234447 | 53 | 0.0 | 0.0 | 0.00 | 0.00 | 0.00 | 100 | 1017.2 | |
| 20260507233448 | 52 | 0.0 | 0.0 | 0.00 | 0.00 | 0.00 | 100 | 1017.2 | |
| 20260507232448 | 53 | 0.0 | 0.0 | 0.00 | 0.00 | 0.00 | 100 | 1017.3 | |
| 20260507231450 | 53 | 0.0 | 0.0 | 0.00 | 0.00 | 0.00 | 100 | 1017.3 | |
| 20260507230451 | 53 | 0.0 | 0.0 | 0.00 | 0.00 | 0.00 | 100 | 1017.2 | |
| 20260507225453 | 53 | 0.0 | 0.0 | 0.00 | 0.00 | 0.00 | 100 | 1017.2 | |
| 20260507224454 | 54 | 0.0 | 0.0 | 0.00 | 0.00 | 0.00 | 100 | 1017.2 | |
| 20260507223456 | 54 | 0.0 | 0.0 | 0.00 | 0.00 | 0.00 | 100 | 1017.1 | |
| 20260507222457 | 54 | 0.0 | 0.0 | 0.00 | 0.00 | 0.00 | 100 | 1017.1 | |
| 20260507221459 | 54 | 0.0 | 0.0 | 0.00 | 0.00 | 0.00 | 100 | 1017.0 | |
| 20260507220501 | 54 | 0.0 | 0.0 | 0.00 | 0.00 | 0.00 | 100 | 1017.0 | |
| 20260507215457 | 55 | 0.0 | 0.0 | 0.00 | 0.00 | 0.00 | 100 | 1016.9 | |
| 20260507214459 | 55 | 0.0 | 0.0 | 0.00 | 0.00 | 0.00 | 100 | 1016.5 | |
| 20260507213500 | 55 | 0.0 | 0.0 | 0.00 | 0.00 | 0.00 | 100 | 1016.5 | |
| 20260507212502 | 55 | 0.0 | 0.0 | 0.00 | 0.00 | 0.00 | 100 | 1016.7 | |
| 20260507211503 | 55 | 0.0 | 0.0 | 0.00 | 0.00 | 0.00 | 100 | 1016.6 | |
| 20260507210505 | 55 | 0.0 | 0.0 | 0.00 | 0.00 | 0.00 | 100 | 1016.6 | |
| 20260507205507 | 55 | 0.0 | 0.0 | 0.00 | 0.00 | 0.00 | 100 | 1016.5 | |
| 20260507204508 | 55 | 0.0 | 0.0 | 0.00 | 0.00 | 0.00 | 100 | 1016.5 | |
| 20260507203510 | 55 | 0.0 | 0.0 | 0.00 | 0.00 | 0.00 | 100 | 1016.2 | |
| 20260507202509 | 55 | 0.0 | 0.0 | 0.00 | 0.00 | 0.00 | 100 | 1016.0 | |
| 20260507201511 | 55 | 0.0 | 0.0 | 0.00 | 0.00 | 0.00 | 100 | 1015.9 | |
| 20260507200513 | 54 | 0.0 | 0.0 | 0.00 | 0.00 | 0.00 | 100 | 1015.7 | |
| 20260507195514 | 55 | 0.0 | 0.0 | 0.00 | 0.00 | 0.00 | 100 | 1015.8 | |
| 20260507194517 | 55 | 0.0 | 0.0 | 0.00 | 0.00 | 0.00 | 100 | 1016.3 | |
| 20260507193518 | 55 | 0.0 | 0.0 | 0.00 | 0.00 | 0.00 | 100 | 1016.2 | |
| 20260507192520 | 55 | 0.0 | 0.0 | 0.00 | 0.00 | 0.00 | 100 | 1015.9 | |
| 20260507191521 | 54 | 0.0 | 0.0 | 0.00 | 0.00 | 0.00 | 100 | 1015.5 | |
| 20260507190523 | 55 | 0.0 | 0.0 | 0.00 | 0.00 | 0.00 | 100 | 1015.2 | |
| 20260507185520 | 55 | 0.0 | 0.0 | 0.00 | 0.00 | 0.00 | 100 | 1015.3 | |
| 20260507184521 | 55 | 0.0 | 0.0 | 0.00 | 0.00 | 0.00 | 100 | 1015.2 | |
| 20260507183522 | 55 | 0.0 | 0.0 | 0.00 | 0.00 | 0.00 | 100 | 1015.0 | |
| 20260507182524 | 54 | 0.0 | 0.0 | 0.00 | 0.00 | 0.00 | 100 | 1014.8 | |
| 20260507181527 | 54 | 0.0 | 0.0 | 0.00 | 0.00 | 0.00 | 99 | 1014.8 | |
| 20260507180528 | 55 | 0.0 | 0.0 | 0.00 | 0.00 | 0.00 | 97 | 1014.8 | |
| 20260507175530 | 55 | 0.0 | 0.0 | 0.00 | 0.00 | 0.00 | 97 | 1014.5 | |
| 20260507174532 | 56 | 0.0 | 0.0 | 0.00 | 0.00 | 0.00 | 98 | 1014.3 | |
| 20260507173534 | 56 | 0.0 | 0.0 | 0.00 | 0.00 | 0.00 | 98 | 1013.5 | |
| 20260507172534 | 56 | 0.0 | 0.0 | 0.00 | 0.00 | 0.00 | 100 | 1013.3 | |
| 20260507171535 | 56 | 0.0 | 0.0 | 0.00 | 0.00 | 0.00 | 100 | 1013.1 | |
| 20260507170537 | 56 | 0.0 | 0.0 | 0.00 | 0.00 | 0.00 | 100 | 1013.1 | |
| 20260507165539 | 56 | 0.0 | 0.0 | 0.00 | 0.00 | 0.00 | 100 | 1013.0 | |
| 20260507164541 | 59 | 0.0 | 0.0 | 0.00 | 0.00 | 0.00 | 89 | 1012.8 | |
| 20260507163543 | 60 | 0.0 | 0.0 | 0.00 | 0.00 | 0.00 | 82 | 1012.2 | |
| 20260507162546 | 61 | 0.0 | 0.0 | 0.00 | 0.00 | 0.00 | 81 | 1012.1 | |
| 20260507161548 | 62 | 0.0 | 0.0 | 0.00 | 0.00 | 0.00 | 79 | 1012.0 | |
| 20260507160550 | 64 | 0.0 | 0.0 | 0.00 | 0.00 | 0.00 | 70 | 1011.7 | |
| 20260507155552 | 69 | 0.0 | 0.0 | 0.00 | 0.00 | 0.00 | 55 | 1011.0 | |
| 20260507154555 | 69 | 0.0 | 0.0 | 0.00 | 0.00 | 0.00 | 55 | 1010.8 | |
| 20260507153557 | 69 | 0.0 | 0.0 | 0.00 | 0.00 | 0.00 | 53 | 1010.9 | |
| 20260507152559 | 69 | 0.0 | 0.0 | 0.00 | 0.00 | 0.00 | 53 | 1011.0 | |
| 20260507151601 | 69 | 0.0 | 0.0 | 0.00 | 0.00 | 0.00 | 52 | 1010.9 | |
| 20260507150604 | 70 | 0.0 | 0.0 | 0.00 | 0.00 | 0.00 | 52 | 1010.8 | |
| 20260507145607 | 72 | 0.0 | 0.0 | 0.00 | 0.00 | 0.00 | 45 | 1010.5 | |
| 20260507144609 | 73 | 0.0 | 0.0 | 0.00 | 0.00 | 0.00 | 44 | 1010.3 | |
| 20260507143612 | 73 | 0.0 | 0.0 | 0.00 | 0.00 | 0.00 | 43 | 1010.3 | |
| 20260507142615 | 75 | 0.0 | 0.0 | 0.00 | 0.00 | 0.00 | 43 | 1010.2 | |
| 20260507141617 | 74 | 0.0 | 0.0 | 0.00 | 0.00 | 0.00 | 43 | 1010.3 | |
| 20260507140619 | 74 | 0.0 | 0.0 | 0.00 | 0.00 | 0.00 | 42 | 1010.2 | |
| 20260507135622 | 76 | 0.0 | 0.0 | 0.00 | 0.00 | 0.00 | 39 | 1010.2 | |
| 20260507134624 | 74 | 0.0 | 0.0 | 0.00 | 0.00 | 0.00 | 41 | 1010.4 | |
| 20260507133626 | 74 | 0.0 | 0.0 | 0.00 | 0.00 | 0.00 | 42 | 1010.6 | |
| 20260507132628 | 71 | 0.0 | 0.0 | 0.00 | 0.00 | 0.00 | 54 | 1010.7 | |
| 20260507131630 | 70 | 0.0 | 0.0 | 0.00 | 0.00 | 0.00 | 57 | 1010.8 | |
| 20260507130632 | 71 | 0.0 | 0.0 | 0.00 | 0.00 | 0.00 | 57 | 1010.9 | |
| 20260507125633 | 71 | 0.0 | 0.0 | 0.00 | 0.00 | 0.00 | 55 | 1010.9 | |
| 20260507124636 | 71 | 0.0 | 0.0 | 0.00 | 0.00 | 0.00 | 54 | 1011.0 | |
| 20260507123639 | 71 | 0.0 | 0.0 | 0.00 | 0.00 | 0.00 | 54 | 1011.1 | |
| 20260507122642 | 71 | 0.0 | 0.0 | 0.00 | 0.00 | 0.00 | 54 | 1011.0 | |
| 20260507121644 | 74 | 0.0 | 0.0 | 0.00 | 0.00 | 0.00 | 51 | 1010.8 | |
| 20260507120645 | 73 | 0.0 | 0.0 | 0.00 | 0.00 | 0.00 | 54 | 1011.0 | |
| 20260507115647 | 72 | 0.0 | 0.0 | 0.00 | 0.00 | 0.00 | 54 | 1011.1 | |
| 20260507114650 | 71 | 0.0 | 0.0 | 0.00 | 0.00 | 0.00 | 56 | 1011.3 | |
| 20260507113652 | 68 | 0.0 | 0.0 | 0.00 | 0.00 | 0.00 | 60 | 1011.5 | |
| 20260507112655 | 68 | 0.0 | 0.0 | 0.00 | 0.00 | 0.00 | 64 | 1011.6 | |
| 20260507111657 | 69 | 0.0 | 0.0 | 0.00 | 0.00 | 0.00 | 59 | 1011.4 | |
| 20260507110700 | 71 | 0.0 | 0.0 | 0.00 | 0.00 | 0.00 | 54 | 1011.2 | |
| 20260507105702 | 69 | 0.0 | 0.0 | 0.00 | 0.00 | 0.00 | 56 | 1011.2 | |
| 20260507104705 | 70 | 0.0 | 0.0 | 0.00 | 0.00 | 0.00 | 58 | 1011.2 | |
| 20260507102709 | 71 | 0.0 | 0.0 | 0.00 | 0.00 | 0.00 | 58 | 1011.1 | |
| 20260507101711 | 69 | 0.0 | 0.0 | 0.00 | 0.00 | 0.00 | 60 | 1011.3 | |
| 20260507100713 | 70 | 0.0 | 0.0 | 0.00 | 0.00 | 0.00 | 59 | 1011.3 | |
| 20260507095715 | 69 | 0.0 | 0.0 | 0.00 | 0.00 | 0.00 | 60 | 1011.3 | |
| 20260507094717 | 69 | 0.0 | 0.0 | 0.00 | 0.00 | 0.00 | 60 | 1011.1 | |
| 20260507093720 | 70 | 0.0 | 0.0 | 0.00 | 0.00 | 0.00 | 60 | 1011.1 | |
| 20260507092722 | 70 | 0.0 | 0.0 | 0.00 | 0.00 | 0.00 | 59 | 1011.1 | |
| 20260507091724 | 69 | 0.0 | 0.0 | 0.00 | 0.00 | 0.00 | 61 | 1011.0 | |
| 20260507090727 | 68 | 0.0 | 0.0 | 0.00 | 0.00 | 0.00 | 64 | 1010.9 | |
| 20260507085730 | 69 | 0.0 | 0.0 | 0.00 | 0.00 | 0.00 | 62 | 1010.7 | |
| 20260507084732 | 70 | 0.0 | 0.0 | 0.00 | 0.00 | 0.00 | 62 | 1010.6 | |
| 20260507083734 | 66 | 0.0 | 0.0 | 0.00 | 0.00 | 0.00 | 68 | 1010.9 | |
| 20260507082737 | 66 | 0.0 | 0.0 | 0.00 | 0.00 | 0.00 | 68 | 1010.7 | |
| 20260507081738 | 66 | 0.0 | 0.0 | 0.00 | 0.00 | 0.00 | 70 | 1010.6 | |
| 20260507080740 | 65 | 0.0 | 0.0 | 0.00 | 0.00 | 0.00 | 70 | 1010.6 | |
| 20260507075743 | 66 | 0.0 | 0.0 | 0.00 | 0.00 | 0.00 | 69 | 1010.5 | |
| 20260507074745 | 68 | 0.0 | 0.0 | 0.00 | 0.00 | 0.00 | 66 | 1010.2 | |
| 20260507073747 | 66 | 0.0 | 0.0 | 0.00 | 0.00 | 0.00 | 70 | 1010.2 | |
| 20260507072749 | 65 | 0.0 | 0.0 | 0.00 | 0.00 | 0.00 | 72 | 1010.0 | |
| 20260507071752 | 65 | 0.0 | 0.0 | 0.00 | 0.00 | 0.00 | 72 | 1010.1 | |
| 20260507070754 | 63 | 0.0 | 0.0 | 0.00 | 0.00 | 0.00 | 73 | 1010.1 | |
| 20260507065756 | 66 | 0.0 | 0.0 | 0.00 | 0.00 | 0.00 | 70 | 1009.8 | |
| 20260507064758 | 64 | 0.0 | 0.0 | 0.00 | 0.00 | 0.00 | 72 | 1009.8 | |
| 20260507063759 | 63 | 0.0 | 0.0 | 0.00 | 0.00 | 0.00 | 73 | 1009.8 | |
| 20260507062801 | 64 | 0.0 | 0.0 | 0.00 | 0.00 | 0.00 | 73 | 1009.8 | |
| 20260507061803 | 63 | 0.0 | 0.0 | 0.00 | 0.00 | 0.00 | 73 | 1009.7 | |
| 20260507060805 | 62 | 0.0 | 0.0 | 0.00 | 0.00 | 0.00 | 75 | 1009.8 | |
| 20260507055807 | 61 | 0.0 | 0.0 | 0.00 | 0.00 | 0.00 | 77 | 1009.7 | |
| 20260507054810 | 60 | 0.0 | 0.0 | 0.00 | 0.00 | 0.00 | 79 | 1009.7 | |
| 20260507053812 | 60 | 0.0 | 0.0 | 0.00 | 0.00 | 0.00 | 80 | 1009.6 | |
| 20260507052815 | 60 | 0.0 | 0.0 | 0.00 | 0.00 | 0.00 | 80 | 1009.6 | |
| 20260507051818 | 60 | 0.0 | 0.0 | 0.00 | 0.00 | 0.00 | 79 | 1009.5 | |
| 20260507050821 | 60 | 0.0 | 0.0 | 0.00 | 0.00 | 0.00 | 79 | 1009.4 | |
| 20260507045824 | 60 | 0.0 | 0.0 | 0.00 | 0.00 | 0.00 | 79 | 1009.2 | |
| 20260507043828 | 60 | 0.0 | 0.0 | 0.00 | 0.00 | 0.00 | 78 | 1009.1 | |
| 20260507042829 | 60 | 0.0 | 0.0 | 0.00 | 0.00 | 0.00 | 77 | 1009.0 | |
| 20260507041832 | 60 | 0.0 | 0.0 | 0.00 | 0.00 | 0.00 | 78 | 1008.8 | |
| 20260507040834 | 60 | 0.0 | 0.0 | 0.00 | 0.00 | 0.00 | 77 | 1008.7 | |
| 20260507035835 | 60 | 0.0 | 0.0 | 0.00 | 0.00 | 0.00 | 77 | 1008.6 | |
| 20260507034838 | 60 | 0.0 | 0.0 | 0.00 | 0.00 | 0.00 | 76 | 1008.5 |